TimeEDT,TemperatureF,Dew PointF,Humidity,Sea Level PressureIn,VisibilityMPH,Wind Direction,Wind SpeedMPH,Gust SpeedMPH,PrecipitationIn,Events,Conditions,WindDirDegrees,DateUTC
12:56 AM,48.9,46.9,93,29.89,8.0,SW,6.9,-,N/A,,Clear,230,2011-11-04 04:56:00
1:56 AM,51.1,48.9,92,29.87,10.0,WSW,6.9,-,N/A,,Clear,250,2011-11-04 05:56:00
2:56 AM,51.1,48.0,89,29.86,10.0,West,5.8,-,N/A,,Clear,270,2011-11-04 06:56:00
3:56 AM,50.0,48.0,93,29.86,9.0,West,5.8,-,N/A,,Clear,280,2011-11-04 07:56:00
4:56 AM,48.2,46.4,93,29.87,10.0,WNW,4.6,-,N/A,,Clear,290,2011-11-04 08:56:00
5:56 AM,48.9,45.0,86,29.88,10.0,NNW,5.8,-,N/A,,Clear,340,2011-11-04 09:56:00
6:56 AM,50.0,46.0,86,29.89,10.0,North,10.4,19.6,N/A,,Scattered Clouds,360,2011-11-04 10:56:00
7:56 AM,50.0,43.0,77,29.91,10.0,North,15.0,25.3,N/A,,Partly Cloudy,350,2011-11-04 11:56:00
8:27 AM,50.0,42.8,76,29.93,10.0,North,13.8,24.2,N/A,,Mostly Cloudy,350,2011-11-04 12:27:00
8:56 AM,50.0,39.9,68,29.94,10.0,North,16.1,24.2,N/A,,Overcast,350,2011-11-04 12:56:00
9:56 AM,48.0,37.9,68,29.95,10.0,NNW,15.0,23.0,N/A,,Overcast,340,2011-11-04 13:56:00
10:56 AM,46.9,37.0,68,29.96,10.0,North,15.0,25.3,N/A,,Overcast,350,2011-11-04 14:56:00
11:40 AM,48.2,35.6,62,29.96,10.0,North,16.1,24.2,N/A,,Overcast,350,2011-11-04 15:40:00
11:56 AM,48.0,34.0,58,29.97,10.0,North,16.1,25.3,N/A,,Overcast,360,2011-11-04 15:56:00
12:56 PM,46.9,35.1,63,29.96,10.0,North,11.5,23.0,N/A,,Overcast,10,2011-11-04 16:56:00
1:56 PM,48.2,32.0,54,29.97,10.0,North,16.1,27.6,N/A,,Overcast,350,2011-11-04 17:56:00
2:56 PM,46.9,28.9,50,29.99,10.0,North,17.3,23.0,N/A,,Scattered Clouds,350,2011-11-04 18:56:00
3:56 PM,48.0,28.9,48,30.00,10.0,North,16.1,26.5,N/A,,Partly Cloudy,10,2011-11-04 19:56:00
4:56 PM,48.2,28.4,46,30.01,10.0,North,11.5,19.6,N/A,,Mostly Cloudy,10,2011-11-04 20:56:00
5:56 PM,48.2,23.0,37,30.05,10.0,North,16.1,25.3,N/A,,Scattered Clouds,350,2011-11-04 21:56:00
6:56 PM,46.0,30.0,54,30.08,10.0,North,17.3,23.0,0.00,,Overcast,350,2011-11-04 22:56:00
7:56 PM,46.0,28.0,50,30.10,10.0,North,15.0,29.9,0.00,,Overcast,10,2011-11-04 23:56:00
8:56 PM,45.0,25.0,46,30.14,10.0,North,19.6,29.9,N/A,,Partly Cloudy,10,2011-11-05 00:56:00
9:56 PM,45.0,27.0,49,30.17,10.0,NNE,18.4,28.8,N/A,,Mostly Cloudy,20,2011-11-05 01:56:00
10:56 PM,44.6,28.4,53,30.17,10.0,North,17.3,31.1,N/A,,Mostly Cloudy,360,2011-11-05 02:56:00
11:56 PM,44.1,30.0,58,30.18,10.0,NNE,16.1,25.3,N/A,,Mostly Cloudy,20,2011-11-05 03:56:00